Date String (YYYY-MM-DD hh:mm:ss) UTC,Instrument flags,Ambient pressure (hPa),Sample flow (lpm),Bypass flow (lpm),Sample temperature (°C),Ambient temperature (°C),ASC tube jacket temperature (°C),LED temperature (°C),Box temperature (°C),Sample RH (%),Span deviation,Mass concentration (μg/m³),Mass concentration (μg/m³),Mass concentration (μg/m³)
DateTimeUTC,F1_M11,P_M11,Q1_M11,Q2_M11,T1_M11,T2_M11,T3_M11,T4_M11,T5_M11,U1_M11,ZSPAN_M11,X0_M11,X2_M11,X1_M11
2022-11-01 01:00:00,,0822.9,4.98,0.00,30.2,28.7,00.0,39.0,32.0,09.0,0000.0,0004.15,0002.01,0001.66
2022-11-01 01:01:00,,0822.9,5.02,0.00,30.2,28.8,00.0,39.0,32.0,09.0,0000.0,0004.10,0002.01,0001.66
2022-11-01 01:02:00,,0822.9,4.99,0.00,30.2,28.8,00.0,39.0,32.0,09.0,0000.0,0004.08,0001.99,0001.66
2022-11-01 01:03:00,,0823.0,5.01,0.00,30.2,28.8,00.0,39.0,32.0,09.0,0000.0,0004.12,0002.00,0001.66
2022-11-01 01:04:00,,0823.0,5.00,0.00,30.2,28.8,00.0,39.0,32.0,09.0,0000.0,0004.27,0002.01,0001.67
2022-11-01 01:05:00,,0822.9,5.01,0.00,30.2,28.8,00.0,39.0,32.0,09.0,0000.0,0004.36,0002.01,0001.67
2022-11-01 01:06:00,,0823.0,5.00,0.00,30.2,28.8,00.0,39.0,32.1,09.0,0000.0,0004.22,0001.98,0001.66
2022-11-01 01:07:00,,0823.0,4.99,0.00,30.2,28.8,00.0,39.0,32.0,09.0,0000.0,0003.96,0001.94,0001.66
2022-11-01 01:08:00,,0823.0,5.02,0.00,30.2,28.8,00.0,39.0,32.1,08.9,0000.0,0003.78,0001.91,0001.68
2022-11-01 01:09:00,,0823.0,4.98,0.00,30.3,28.8,00.0,39.1,32.1,08.9,0000.0,0003.26,0001.90,0001.68
2022-11-01 01:10:00,,0823.0,5.00,0.00,30.3,28.8,00.0,39.1,32.0,08.9,0000.0,0002.63,0001.86,0001.68
2022-11-01 01:11:00,,0823.0,5.00,0.00,30.3,28.8,00.0,39.1,32.0,08.9,0000.0,0002.65,0001.85,0001.68
2022-11-01 01:12:00,,0823.0,5.01,0.00,30.2,28.7,00.0,39.1,32.0,08.9,0000.0,0002.72,0001.87,0001.68
2022-11-01 01:13:00,,0823.0,5.00,0.00,30.3,28.8,00.0,39.1,32.1,08.9,0000.0,0002.76,0001.88,0001.69
2022-11-01 01:14:00,,0823.0,5.01,0.00,30.3,28.8,00.0,39.1,32.1,08.9,0000.0,0002.79,0001.90,0001.70
2022-11-01 01:15:00,,0823.0,4.99,0.00,30.3,28.8,00.0,39.1,32.0,09.0,0000.0,0002.66,0001.91,0001.70
2022-11-01 01:16:00,,0823.1,5.01,0.00,30.3,28.8,00.0,39.1,32.0,09.0,0000.0,0002.56,0001.91,0001.69
2022-11-01 01:17:00,,0823.0,4.98,0.00,30.3,28.8,00.0,39.1,32.0,09.0,0000.0,0002.42,0001.89,0001.69
2022-11-01 01:18:00,,0823.0,5.01,0.00,30.3,28.8,00.0,39.1,32.0,09.0,0000.0,0002.47,0001.91,0001.71
2022-11-01 01:19:00,,0823.0,4.99,0.00,30.3,28.8,00.0,39.1,32.0,09.0,0000.0,0002.53,0001.94,0001.71
2022-11-01 01:20:00,,0823.1,5.01,0.00,30.3,28.8,00.0,39.1,32.1,09.0,0000.0,0002.51,0001.93,0001.71
2022-11-01 01:21:00,,0823.1,4.98,0.00,30.3,28.8,00.0,39.1,32.0,09.0,0000.0,0002.56,0001.97,0001.71
2022-11-01 01:22:00,,0823.1,5.02,0.00,30.3,28.8,00.0,39.1,32.1,09.0,0000.0,0002.52,0001.97,0001.72
2022-11-01 01:23:00,,0823.1,4.99,0.00,30.3,28.8,00.0,39.1,32.1,09.0,0000.0,0002.50,0001.98,0001.72
2022-11-01 01:24:00,,0823.1,4.99,0.00,30.3,28.8,00.0,39.2,32.1,09.0,0000.0,0002.51,0001.98,0001.72
2022-11-01 01:25:00,,0823.1,5.02,0.00,30.3,28.8,00.0,39.2,32.1,09.0,0000.0,0002.49,0001.97,0001.71
2022-11-01 01:26:00,,0823.1,4.99,0.00,30.3,28.8,00.0,39.2,32.1,09.0,0000.0,0002.48,0001.97,0001.71
2022-11-01 01:27:00,,0823.1,5.02,0.00,30.3,28.8,00.0,39.2,32.1,09.0,0000.0,0002.50,0001.98,0001.71
2022-11-01 01:28:00,,0823.1,4.99,0.00,30.4,28.9,00.0,39.2,32.1,09.0,0000.0,0002.54,0002.00,0001.72
2022-11-01 01:29:00,,0823.1,5.01,0.00,30.4,28.9,00.0,39.2,32.1,09.0,0000.0,0002.55,0001.99,0001.72
2022-11-01 01:30:00,,0823.1,4.99,0.00,30.4,28.9,00.0,39.2,32.1,09.0,0000.0,0002.47,0001.96,0001.71
2022-11-01 01:31:00,,0823.1,5.02,0.00,30.4,28.8,00.0,39.2,32.1,09.0,0000.0,0002.54,0001.99,0001.71
2022-11-01 01:32:00,,0823.1,4.98,0.00,30.4,28.9,00.0,39.2,32.1,09.0,0000.0,0002.53,0001.98,0001.70
2022-11-01 01:33:00,,0823.1,5.01,0.00,30.4,28.9,00.0,39.2,32.1,09.0,0000.0,0002.48,0001.95,0001.69
2022-11-01 01:34:00,,0823.1,5.02,0.00,30.4,28.9,00.0,39.2,32.1,09.0,0000.0,0002.53,0001.98,0001.69
2022-11-01 01:35:00,,0823.2,5.00,0.00,30.4,28.9,00.0,39.2,32.1,09.1,0000.0,0002.51,0001.98,0001.69
2022-11-01 01:36:00,,0823.1,5.00,0.00,30.4,28.8,00.0,39.2,32.0,09.1,0000.0,0002.55,0001.99,0001.69
2022-11-01 01:37:00,,0823.2,5.01,0.00,30.4,28.8,00.0,39.2,32.1,09.1,0000.0,0002.61,0002.00,0001.69
2022-11-01 01:38:00,,0823.1,5.01,0.00,30.4,28.9,00.0,39.2,32.1,09.1,0000.0,0002.70,0002.00,0001.69
2022-11-01 01:39:00,,0823.1,4.98,0.00,30.4,28.9,00.0,39.2,32.2,09.1,0000.0,0003.83,0002.04,0001.69
2022-11-01 01:40:00,,0823.1,5.02,0.00,30.4,28.9,00.0,39.2,32.1,09.1,0000.0,0004.39,0002.07,0001.69
2022-11-01 01:41:00,,0823.1,4.98,0.00,30.4,28.9,00.0,39.2,32.1,09.1,0000.0,0004.47,0002.10,0001.69
2022-11-01 01:42:00,,0823.1,5.00,0.00,30.4,28.9,00.0,39.2,32.1,09.1,0000.0,0004.37,0002.06,0001.69
2022-11-01 01:43:00,,0823.1,5.00,0.00,30.4,28.9,00.0,39.2,32.2,09.1,0000.0,0004.37,0002.06,0001.70
2022-11-01 01:44:00,,0823.1,4.99,0.00,30.4,28.9,00.0,39.2,32.1,09.1,0000.0,0004.43,0002.08,0001.71
2022-11-01 01:45:00,,0823.2,5.01,0.00,30.4,28.8,00.0,39.2,32.1,09.1,0000.0,0004.38,0002.04,0001.70
2022-11-01 01:46:00,,0823.2,5.00,0.00,30.4,28.9,00.0,39.2,32.1,09.1,0000.0,0004.44,0002.05,0001.70
2022-11-01 01:47:00,,0823.1,4.99,0.00,30.4,28.9,00.0,39.2,32.1,09.1,0000.0,0004.34,0002.02,0001.69
2022-11-01 01:48:00,,0823.1,4.99,0.00,30.4,28.9,00.0,39.2,32.2,09.1,0000.0,0004.37,0002.03,0001.69
2022-11-01 01:49:00,,0823.1,5.01,0.00,30.4,28.9,00.0,39.2,32.1,09.2,0000.0,0004.60,0002.01,0001.67
2022-11-01 01:50:00,,0823.2,4.99,0.00,30.4,28.9,00.0,39.2,32.1,09.2,0000.0,0003.47,0001.95,0001.66
2022-11-01 01:51:00,,0823.2,5.02,0.00,30.4,28.9,00.0,39.2,32.1,09.2,0000.0,0002.86,0001.91,0001.64
2022-11-01 01:52:00,,0823.2,4.99,0.00,30.4,28.9,00.0,39.2,32.2,09.2,0000.0,0002.78,0001.88,0001.62
2022-11-01 01:53:00,,0823.1,5.01,0.00,30.4,28.9,00.0,39.2,32.2,09.2,0000.0,0002.82,0001.89,0001.63
2022-11-01 01:54:00,,0823.1,4.99,0.00,30.4,28.8,00.0,39.3,32.1,09.2,0000.0,0002.85,0001.90,0001.62
2022-11-01 01:55:00,,0823.1,5.00,0.00,30.4,27.7,00.0,39.2,32.1,09.2,0000.0,0002.86,0001.91,0001.62
2022-11-01 01:56:00,,0823.1,4.99,0.00,30.4,26.3,00.0,39.1,32.0,09.2,0000.0,0002.88,0001.93,0001.62
2022-11-01 01:57:00,,0823.1,5.02,0.00,30.3,26.2,00.0,39.1,31.9,09.2,0000.0,0002.82,0001.91,0001.63
2022-11-01 01:58:00,,0823.2,4.98,0.00,30.2,26.5,00.0,39.0,31.6,09.2,0000.0,0002.84,0001.92,0001.63
2022-11-01 01:59:00,,0823.2,5.01,0.00,30.1,26.8,00.0,39.0,31.7,09.2,0000.0,0002.73,0001.89,0001.64
